Location: Ospitaletto
(44.3000°N, 10.3167°E)
Time: 19:54:40
(UTC+00:00)

Daily predictions for brighter satellites

Satellite Brightness Start Highest point End
(mag) Time Altitude Azimuth Time Altitude Azimuth Time Altitude Azimuth
BREEZE-M DEB (TANK) 3.3 18:53:19 10° WNW 18:55:32 46° NNE 19:01:06 10° E
Cosmos 1125 Rocket 3.9 18:52:22 10° N 18:57:30 49° ENE 19:02:35 10° SE
Nadezhda 3 Rocket 4.5 18:52:39 10° SSW 18:58:53 71° W 19:05:14 10° N
Meteor 2-11 Rocket 4.5 18:54:19 10° N 19:00:24 73° E 19:06:27 10° SSE
ARGOS Delta rocket 4.2 18:57:21 10° N 19:02:03 75° WNW 19:07:00 10° SSW
CSL-04 Debris 4.4 18:59:39 10° S 19:05:07 78° WSW 19:10:39 10° NNW
IRS-1C Rocket 4.2 18:59:52 10° SSE 19:05:10 89° ENE 19:10:28 10° NNW
Landsat 7 4.0 19:00:49 10° SSE 19:05:27 57° ENE 19:10:05 10° N
Okean-O 2.8 19:02:53 10° S 19:07:18 81° WSW 19:11:46 10° NNW
JB-3 4.3 19:04:09 10° NNE 19:08:03 62° E 19:12:00 10° S
Cosmos 2150 Rocket 4.3 19:03:38 10° NNW 19:09:03 57° ENE 19:14:22 10° SE
Cosmos 1782 3.0 19:06:10 10° N 19:10:00 49° ENE 19:13:49 10° SSE
Cosmos 1933 3.4 19:06:09 10° N 19:10:13 63° E 19:14:14 10° SSE
ATLAS 5 CENTAUR R/B 3.6 19:06:20 10° NNW 19:10:40 26° NE 19:15:43 10° E
SJ-6B 3.2 19:06:39 10° S 19:10:43 69° WSW 19:14:46 10° NNW
H-2A R/B 2.6 19:07:55 10° SSE 19:12:11 71° ENE 19:16:37 10° N
SeaSat 1 3.2 19:08:44 10° S 19:13:32 53° WSW 19:18:22 10° NW
Cosmos 1842 Rocket 3.5 19:10:31 10° N 19:14:53 90° WNW 19:19:12 10° S
CZ-4C R/B 3.1 19:14:41 10° SSE 19:18:02 20° ESE 19:21:48 10° ENE
USA 186 3.0 19:15:53 10° SSW 19:18:31 35° W 19:21:04 10° NNW
Timation 2 Rocket 4.2 19:12:13 10° S 19:18:44 64° ESE 19:25:31 10° NNE
Cosmos 2208 Rocket 4.3 19:13:44 10° SSW 19:19:00 76° WNW 19:24:15 10° NNE
ASTEX 1 4.3 19:14:55 10° NNE 19:19:10 29° E 19:23:22 10° SSE
USA 308 4.4 19:17:18 10° SSE 19:19:48 16° SE 19:22:20 10° E
ATLAS 3B R/B 2.6 19:14:36 10° SSW 19:21:08 71° ESE 19:28:07 10° NE
Cosmos 2221 3.3 19:17:45 10° NNW 19:22:00 53° W 19:26:11 10° S
Cosmos 1184 Rocket 2.7 19:21:18 10° N 19:24:12 51° ENE 19:26:57 11° SSE
ERBS 4.0 19:24:09 10° SSE 19:24:53 12° SE 19:24:53 12° SE
Ariane Rocket 3.6 19:24:04 11° SE 19:28:34 39° ENE 19:33:15 10° N
USA 306 3.8 19:29:53 10° S 19:33:13 24° SE 19:36:34 10° ENE
Cosmos 1862 3.8 19:32:08 10° SSE 19:35:55 41° E 19:39:45 10° NNE
H-2A R/B 2.3 19:32:46 10° NNE 19:37:01 48° E 19:41:08 10° S
MetOp-B 4.4 19:40:10 14° SE 19:44:32 51° ENE 19:49:44 10° N
USA 245 4.1 19:47:58 18° E 19:48:36 20° ENE 19:50:53 10° NNE
Cosmos 921 Rocket 3.1 19:46:21 10° S 19:50:29 52° ESE 19:54:35 10° NNE
Cosmos 1340 2.5 19:47:43 10° N 19:51:28 83° E 19:54:19 17° SSE
Cosmos 1943 3.3 19:46:45 10° NNW 19:52:22 65° ENE 19:56:23 19° SE
GP-B 4.4 19:49:22 10° NNW 19:53:33 42° W 19:57:43 10° SSW
Spot 2 Rocket 4.5 19:53:36 19° ESE 19:56:24 32° ENE 20:00:52 10° N
Cosmos 2151 3.9 19:53:48 10° SSW 19:57:55 49° WNW 20:02:03 10° N
NOSS 2-3 (D) 3.7 19:55:40 10° S 19:59:17 40° ESE 20:03:18 10° NE
Cosmos 332 Rocket 4.3 19:56:29 10° NNW 20:01:18 60° WSW 20:05:28 14° S
SPOT 5 3.7 19:59:11 22° ESE 20:01:36 35° ENE 20:06:08 10° N
NOSS 2-3 (C) 3.5 19:58:51 10° SSW 20:02:33 47° ESE 20:06:43 10° NE
CARTOSAT-1 3.6 20:00:01 22° SSE 20:02:40 63° ENE 20:06:57 10° N
Meteor 1-10 Rocket 4.5 19:57:28 10° N 20:02:55 51° ENE 20:06:15 23° SE
SPOT 3 Rocket 3.8 20:00:22 21° SE 20:03:41 54° ENE 20:08:45 10° N
Cosmos 1812 3.9 20:02:57 10° NNW 20:06:32 40° W 20:10:06 10° SSW
NOSS 3-1 (C) 3.3 20:06:15 10° S 20:11:03 45° ESE 20:16:36 10° NE
SL-16 R/B 4.1 20:08:14 10° NW 20:12:44 24° WSW 20:17:11 10° SSW
CZ-4B R/B 1.1 20:14:02 10° NNE 20:17:11 87° WNW 20:18:44 27° SSW
ERS-1 Rocket 3.5 20:15:33 27° ESE 20:17:43 43° ENE 20:22:27 10° N
Cosmos 1459 Rocket 4.0 20:11:44 10° N 20:17:57 66° E 20:21:49 24° SSE
Cosmos 1802 Rocket 4.3 20:12:39 10° N 20:18:57 54° ENE 20:22:26 27° SE
SPOT 1/Viking Rocket 4.1 20:14:19 12° S 20:19:05 55° W 20:24:13 10° NNW
NOSS 5 (C) 4.4 20:17:24 10° NW 20:20:28 71° SW 20:21:24 43° SSE
Cosmos 1725 Rocket 4.5 20:16:40 10° N 20:22:38 44° ENE 20:25:26 28° SE
USA 229 DEB 4.5 20:22:40 25° ESE 20:22:46 25° ESE 20:27:54 10° ENE
Cosmos 1727 Rocket 4.2 20:16:40 10° SSW 20:22:49 73° W 20:29:01 10° N
USA 229 4.5 20:22:53 24° ESE 20:22:53 24° ESE 20:27:58 10° ENE
Okean 3 Rocket 3.9 20:23:00 35° SE 20:24:18 46° E 20:28:33 10° NNE
USA 305 2.7 20:21:08 10° SW 20:25:14 65° SE 20:29:20 10° ENE
Genesis I 3.2 20:21:55 10° SSW 20:25:52 63° ESE 20:29:55 10° NE
Resurs 01 Rocket 2.9 20:22:13 10° SSW 20:26:15 36° W 20:30:22 10° NNW
USA 307 2.8 20:22:14 10° SW 20:26:16 54° SE 20:30:18 10° ENE
Cosmos 2123 Rocket 4.2 20:24:36 26° SSE 20:28:00 51° E 20:34:04 10° NNE
Cosmos 1346 Rocket 4.1 20:24:42 10° NNE 20:28:06 26° ENE 20:28:22 25° E
Cosmos 2263 Rocket 3.6 20:27:21 10° SW 20:32:33 40° WNW 20:37:47 10° NNE
Helios 1A Rocket 3.4 20:31:58 38° E 20:32:43 43° ENE 20:36:37 10° N
Terra 2.2 20:32:22 36° ESE 20:33:47 47° ENE 20:38:20 10° N
USA 234 3.3 20:31:05 10° ENE 20:37:29 54° SE 20:43:52 10° SSW
Cosmos 1844 Rocket 2.8 20:35:26 29° S 20:37:59 52° ESE 20:43:24 10° NE
Cosmos 2100 Rocket 4.0 20:32:13 10° N 20:38:26 81° W 20:42:16 25° S
Meteor 1-27 Rocket 3.7 20:39:19 10° N 20:44:54 72° E 20:47:02 39° SSE
Cosmos 1603 4.1 20:41:06 10° NNW 20:46:40 56° WSW 20:49:25 29° S
NOSS 2-3 (E) 3.8 20:43:54 10° SW 20:47:45 62° NW 20:52:12 10° NNE
ARIANE 5 R/B 3.1 20:47:29 39° E 20:47:57 41° ENE 20:52:02 10° N
Cosmos 158 Rocket 4.0 20:43:57 14° SSW 20:48:41 87° WNW 20:54:06 10° NNE
Cosmos 1515 Rocket 3.8 20:45:16 10° N 20:49:30 47° ENE 20:49:50 46° E
NOSS 3-1 (A) 3.3 20:48:47 44° SE 20:49:30 46° ESE 20:55:07 10° NE
Cosmos 1408 Rocket 3.9 20:50:36 46° E 20:50:37 46° E 20:54:52 10° NNE
Meteor 1-25 Rocket 4.4 20:49:36 41° SE 20:50:54 49° E 20:56:17 10° NNE
ATLAS 5 CENTAUR R/B 2.3 20:50:10 10° NW 20:55:41 77° SW 20:58:03 41° SSE
USA 308 2.7 20:54:37 10° SW 20:58:47 87° NW 21:02:56 10° NE
Cosmos 1400 Rocket 3.1 20:59:27 44° SW 21:00:34 66° W 21:04:38 10° N
Cosmos 967 Rocket 4.4 20:54:34 10° NNW 21:00:59 82° NE 21:03:08 44° SE
Cosmos 1151 Rocket 4.3 21:00:04 10° NNW 21:04:00 36° W 21:05:42 25° SW
Cosmos 292 Rocket 3.9 21:00:14 10° NNW 21:05:04 71° WSW 21:06:06 53° S
Cosmos 1766 Rocket 4.3 21:03:18 27° SW 21:05:25 50° WNW 21:09:43 10° N
CZ-4C R/B 2.6 21:01:04 10° SW 21:05:45 58° NW 21:11:31 10° NNE
Cosmos 1538 Rocket 3.8 21:04:54 45° S 21:06:31 82° ESE 21:11:43 10° NNE
Cosmos 1743 Rocket 4.5 21:10:07 35° ENE 21:10:07 35° ENE 21:13:19 10° NNE
USA 306 3.3 21:08:18 10° WSW 21:12:22 60° NNW 21:16:27 10° NE
ATLAS 3B R/B 4.5 21:06:30 10° W 21:12:28 32° NW 21:18:47 10° NNE
CZ-2C R/B 3.6 21:09:15 10° NNE 21:13:44 82° WNW 21:14:30 61° SSW
Cosmos 2228 Rocket 4.4 21:10:33 10° NNE 21:14:14 28° ENE 21:14:14 28° ENE
SL-08 R/B 4.5 21:14:15 10° NNW 21:20:22 75° W 21:22:22 44° SSW
Cosmos 1441 Rocket 3.9 21:17:05 10° N 21:20:00 48° NNE 21:20:00 48° NNE
Cosmos 2233 Rocket 3.9 21:15:09 10° N 21:21:29 80° E 21:23:05 53° SSE
Meteor 1-20 Rocket 4.2 21:20:58 46° SSW 21:22:43 80° W 21:28:23 10° N
Cosmos 1833 Rocket 4.0 21:25:15 10° N 21:30:07 29° NE 21:31:27 26° ENE
ADEOS Rocket 4.3 21:29:25 30° E 21:31:41 37° ENE 21:37:54 10° N
Cosmos 2061 Rocket 4.3 21:27:22 10° NNW 21:33:34 60° W 21:35:40 40° SSW
Cosmos 1500 Rocket 3.7 21:37:58 69° N 21:37:58 69° N 21:41:51 10° N
BREEZE-M DEB (TANK) 3.9 21:35:53 10° WNW 21:38:14 37° N 21:43:17 10° ENE
Cosmos 2082 Rocket 4.3 21:35:36 10° N 21:39:04 16° NE 21:41:28 13° ENE
SPOT 5 4.3 21:38:24 25° WSW 21:39:42 28° W 21:44:00 10° NW
Cosmos 1844 4.1 21:38:26 27° SW 21:41:35 62° WNW 21:47:18 10° NNE
Cosmos 1666 3.9 21:44:17 40° N 21:44:17 40° N 21:46:48 10° N
Cosmos 2278 Rocket 3.6 21:56:18 24° ENE 21:56:18 24° ENE 21:59:18 10° NE
Meteor 1-18 Rocket 4.1 21:48:49 10° N 21:54:45 89° WSW 21:55:12 78° S
Cosmos 1315 Rocket 3.9 21:56:20 43° NNW 21:56:20 43° NNW 21:59:17 10° N
Cosmos 1464 Rocket 4.2 21:52:53 10° N 21:59:06 55° ENE 21:59:35 54° E
Cosmos 2346 Rocket 4.4 22:04:58 66° ESE 22:05:10 66° E 22:11:24 10° NNE
USA 307 4.4 22:02:06 10° W 22:05:54 35° NNW 22:09:42 10° NE
Cosmos 2034 Rocket 4.4 22:03:36 10° N 22:09:33 46° ENE 22:09:50 46° E
Meteor 1-14 Rocket 4.1 22:11:46 78° NE 22:11:46 78° NE 22:17:03 10° NNE
Terra 3.7 22:11:15 20° W 22:11:45 20° W 22:15:17 10° NW
ALOS 2 3.9 22:13:58 34° NE 22:13:58 34° NE 22:17:03 10° N
USA 229 DEB 3.8 22:10:00 33° WSW 22:13:00 68° NW 22:19:49 10° NE
USA 229 3.8 22:10:12 34° WSW 22:13:06 68° NW 22:19:55 10° NE
Cosmos 2056 Rocket 3.7 22:12:38 10° NNW 22:17:16 66° NNE 22:17:16 66° NNE
Cosmos 2098 Rocket 3.8 22:19:35 81° SSW 22:19:57 89° W 22:26:55 10° N
USA 234 3.9 22:14:09 10° NE 22:20:30 55° NNW 22:26:50 10° WSW
Cosmos 1513 Rocket 4.4 22:18:10 10° N 22:24:30 84° W 22:24:53 79° SSW
Meteor 2-4 Rocket 4.0 22:19:36 10° NNW 22:25:27 61° W 22:25:37 61° WSW
Sich 1 4.2 22:26:57 41° NW 22:26:57 41° NW 22:30:12 10° N
Cosmos 44 4.1 22:22:35 10° NNW 22:25:35 43° NNW 22:25:35 43° NNW
Cosmos 1943 Rocket 4.2 22:39:13 16° ENE 22:39:13 16° ENE 22:41:14 10° NE
ATLAS 5 CENTAUR R/B 4.4 22:36:40 10° W 22:39:29 15° WSW 22:39:29 15° WSW
COSMOS 2406 3.6 22:36:02 10° NNW 22:41:33 54° ENE 22:41:33 54° ENE
Tsikada Rocket 4.2 22:42:14 55° ENE 22:42:14 55° ENE 22:47:58 10° NNE
Cosmos 1066 Rocket 4.3 22:37:09 10° N 22:42:44 81° N 22:42:44 81° N
Meteor 1-11 Rocket 3.9 23:10:48 67° NNW 23:10:48 67° NNW 23:15:42 10° N
Cosmos 1833 Rocket 3.5 23:08:51 10° NW 23:13:07 42° WNW 23:13:07 42° WNW
Cosmos 1452 Rocket 4.0 23:10:03 10° NNW 23:14:22 59° N 23:14:22 59° N
ADEOS Rocket 3.8 23:16:22 49° WSW 23:16:55 50° W 23:23:45 10° NNW
Cosmos 2082 Rocket 2.4 23:18:24 10° NNW 23:23:16 67° N 23:23:16 67° N
Okean 1-7 4.5 23:24:37 10° N 23:27:16 36° NNW 23:27:16 36° NNW
Cosmos 2278 Rocket 2.9 23:38:07 45° WNW 23:38:21 45° WNW 23:43:47 10° NNE
Cosmos 1634 Rocket 4.0 23:37:33 10° NNW 23:43:36 71° WNW 23:43:36 71° WNW
Meteor 2-15 Rocket 4.5 23:38:34 10° NNW 23:44:14 71° WNW 23:44:14 71° WNW
Resurs 1-4 Rocket 4.1 23:43:07 10° NE 23:46:27 17° E 23:46:27 17° E
CENTAUR R/B 3.5 23:38:37 10° NW 23:46:45 66° NE 23:51:46 29° ESE
